Greenland, New Hampshire, United States (03840)
Lat: 43.04N, Lon: 70.83W
Wx Zone: NHZ014
Local Info
Past Weather Observations for Monday, April 14, 2014

NOTE: This archive is for the closest National Weather Service station to Greenland. Information may differ from the station used for current weather conditions.

Time Weather Temperature Dewpoint Humidity Pressure Winds Precip Visibility
23:58
Overcast
64°F / 18°C 57°F / 14°C 78% 29.86 in
(1011 mb)
S 9.2 mph
(S 15 kph)
- 10SM
22:58
Overcast
64°F / 18°C 55°F / 13°C 73% 29.86 in
(1011 mb)
SSE 15 mph
(SSE 24 kph)
- 10SM
21:58
Overcast
64°F / 18°C 52°F / 11°C 64% 29.86 in
(1011 mb)
SW 16.1 mph
(SW 26 kph)
- 10SM
20:58
Mostly Cloudy
64°F / 18°C 50°F / 10°C 60% 29.86 in
(1011 mb)
SW 18.4 mph
(SW 30 kph)
- 10SM
19:58
Overcast
66°F / 19°C 50°F / 10°C 56% 29.86 in
(1011 mb)
SW 17.3 mph
(SW 28 kph)
- 10SM
18:58
Overcast
68°F / 20°C 50°F / 10°C 53% 29.83 in
(1010 mb)
SSE 16.1 mph
(SSE 26 kph)
- 10SM
17:58
Overcast
70°F / 21°C 50°F / 10°C 50% 29.83 in
(1010 mb)
SSE 16.1 mph
(SSE 26 kph)
- 10SM
16:58
Overcast
72°F / 22°C 50°F / 10°C 47% 29.8 in
(1009 mb)
SSE 18.4 mph
(SSE 30 kph)
- 10SM
15:58
Overcast
73°F / 23°C 48°F / 9°C 41% 29.83 in
(1010 mb)
SW 23 mph
(SW 37 kph)
- 10SM
14:58
Overcast
75°F / 24°C 48°F / 9°C 39% 29.83 in
(1010 mb)
SW 19.6 mph
(SW 32 kph)
- 10SM
13:58
Overcast
75°F / 24°C 48°F / 9°C 39% 29.83 in
(1010 mb)
SSE 18.4 mph
(SSE 30 kph)
- 10SM
12:58
Mostly Cloudy
79°F / 26°C 52°F / 11°C 39% 29.86 in
(1011 mb)
SW 17.3 mph
(SW 28 kph)
- 10SM
11:58
Mostly Cloudy
79°F / 26°C 54°F / 12°C 42% 29.89 in
(1012 mb)
SW 21.9 mph
(SW 35 kph)
- 10SM
10:58
Mostly Cloudy
77°F / 25°C 54°F / 12°C 44% 29.89 in
(1012 mb)
SW 24.2 mph
(SW 39 kph)
- 10SM
09:58
Mostly Cloudy
73°F / 23°C 55°F / 13°C 53% 29.92 in
(1013 mb)
SW 15 mph
(SW 24 kph)
- 10SM
08:58
Mostly Cloudy
57°F / 14°C 46°F / 8°C 67% 29.95 in
(1014 mb)
SSE 5.8 mph
(SSE 9 kph)
- 10SM
07:58
Mostly Cloudy
50°F / 10°C 45°F / 7°C 82% 29.95 in
(1014 mb)
Variable 2.3 mph
(Variable 4 kph)
- 10SM
06:58
Mostly Cloudy
45°F / 7°C 45°F / 7°C 100% 29.98 in
(1015 mb)
ESE 1.2 mph
(ESE 2 kph)
- 10SM
05:58
Mostly Cloudy
39°F / 4°C 39°F / 4°C 100% 29.98 in
(1015 mb)
Calm - 10SM
04:58
Mostly Cloudy
Fog
39°F / 4°C 39°F / 4°C 100% 29.98 in
(1015 mb)
Calm - 7SM
03:58
Mostly Cloudy
39°F / 4°C 39°F / 4°C 100% 29.98 in
(1015 mb)
WNW 1.2 mph
(WNW 2 kph)
- 10SM
02:58
Mostly Cloudy
39°F / 4°C 39°F / 4°C 100% 30.01 in
(1016 mb)
W 2.3 mph
(W 4 kph)
- 10SM
01:58
Overcast
39°F / 4°C 39°F / 4°C 100% 30.01 in
(1016 mb)
NW 2.3 mph
(NW 4 kph)
- 10SM
00:58
Mostly Cloudy
41°F / 5°C 39°F / 4°C 93% 30.01 in
(1016 mb)
WNW 2.3 mph
(WNW 4 kph)
- 10SM
Time Weather Temperature Dewpoint Humidity Pressure Winds Precip Visibility


Weather for websites

WeatherForYou.com, LLC is not responsible for any damages or problems caused by this service. Current weather conditions are obtained from the closest station including government and personal stations which may have varying degrees of accuracy. Weather forecasts are derived from the NOAA NDFD. Like all things, this site belongs to Jesus Christ... He just trusts me to maintain it. If you have any questions or comments email webmaster@weatherforyou.com

Copyright © 2014, WeatherForYou.com LLC. All rights reserved.